Regional Weather Roundup
Issued by NWS

Home | Current Version | Previous Version | Text Only | Print | Product List | Glossary On
Versions: 1 2 3 4 5 6 7 8 9 10 11 12 13 14 15 16 17 18 19 20 21 22 23 24 25 26 27 28 29 30 31 32 33 34 35 36 37 38 39 40 41 42 43 44 45 46 47 48 49 50
000
ASUS46 KSEW 021310
RWRWA

WASHINGTON REGIONAL WEATHER ROUNDUP
NATIONAL WEATHER SERVICE SEATTLE WA
500 AM PST MON MAR 02 2015

NOTE:"FAIR" INDICATES FEW OR NO CLOUDS BELOW 12,000 FEET WITH NO
SIGNIFICANT WEATHER AND/OR OBSTRUCTIONS TO VISIBILITY.

WAZ505-507>509-021400-
SEATTLE, TACOMA, EVERETT, AND VICINITY

CITY           SKY/WX    TMP DP  RH WIND       PRES   REMARKS
EVERETT        CLOUDY    41  36  82 N10G17    29.99S
BOEING FIELD   CLOUDY    46  36  68 N8        30.00R
RENTON         CLOUDY    44  32  62 N8        29.99S
SEATAC AIRPORT CLOUDY    43  36  76 N12       29.99R
JBLM-MCCHORD   CLOUDY    43  41  92 NE7       29.98R
PUYALLUP       CLOUDY    41  37  87 CALM      29.98R
BREMERTON      CLOUDY    41  37  87 NE8G16    30.01R
JBLM-FT LEWIS  CLOUDY    43  41  93 N8        29.97R
TACOMA NARROWS CLOUDY    42  37  82 N13       29.98S
$$

WAZ001-503-506-510-514-515-021400-
NORTH INTERIOR

CITY           SKY/WX    TMP DP  RH WIND       PRES   REMARKS
BELLINGHAM     CLEAR     36  33  89 NW3       30.03R
FRIDAY HARBOR  MOCLDY    40  37  89 VRB5      30.04F
EASTSOUND      MOCLDY    43  39  87 N15       30.03S
PORT ANGELES   CLOUDY    40  37  89 S3        30.04S
NAS WHIDBEY    PTCLDY    44  36  73 N20       30.03R
ARLINGTON      PTCLDY    37  32  81 NW8       30.02S
BURLINGTON     MOCLDY    39  37  93 NW13      30.03R
$$

WAZ020-022-039-040-504-511-512-021400-
SOUTHWEST INTERIOR

CITY           SKY/WX    TMP DP  RH WIND       PRES   REMARKS
SHELTON        CLOUDY    40  38  93 CALM      29.97R
OLYMPIA        CLOUDY    42  37  82 N7        29.98S
CHEHALIS       CLOUDY    43  41  93 N6        29.97R
KELSO          CLOUDY    43  39  87 CALM      29.99R
VANCOUVER      CLOUDY    44  40  85 NW3       29.94S
SCAPPOOSE, OR  CLOUDY    42  40  92 NW3       29.94S
PORTLAND, OR   MOCLDY    42  39  89 NW6       29.94S
$$

WAZ021-516-517-021400-
WASHINGTON COAST

CITY           SKY/WX    TMP DP  RH WIND       PRES   REMARKS
FORKS          CLEAR     37  35  92 N6        30.01R
HOQUIAM        CLEAR     42  38  85 NE8       29.98R
ASTORIA, OR    PTCLDY    43  40  89 NE8       29.94R
$$

WAZ019-023-024-040-518-519-021400-
CASCADE MOUNTAINS AND COLUMBIA GORGE

CITY           SKY/WX    TMP DP  RH WIND       PRES   REMARKS
TROUTDALE, OR  CLOUDY    43  38  82 CALM      29.93S
THE DALLES, OR MOCLDY    37  30  75 CALM      29.92S
$$

WAZ026-027-041>044-520-521-021400-
EAST SLOPES

CITY           SKY/WX    TMP DP  RH WIND       PRES   REMARKS
OMAK           CLOUDY    36  22  56 N8        29.97R
WENATCHEE      CLOUDY    39  29  67 W7        29.94R
ELLENSBURG     CLOUDY    37  28  70 NE3       29.90S
YAKIMA         MOCLDY    34  27  75 W7        29.92R
$$

WAZ028-034-035-021400-
COLUMBIA BASIN

CITY           SKY/WX    TMP DP  RH WIND       PRES   REMARKS
EPHRATA        CLOUDY    39  23  52 N13       29.92S
MOSES LAKE     CLOUDY    34  25  69 N8        29.93S
PASCO          MOCLDY    29  24  82 CALM      29.94S
HERMISTON, OR  PTCLDY    26  22  84 CALM      29.91S
$$

WAZ036>038-021400-
NORTHEAST WASHINGTON

CITY           SKY/WX    TMP DP  RH WIND       PRES   REMARKS
SPOKANE GEIGER CLOUDY    28  17  63 NE3       29.88S
SPOKANE FELTS  CLOUDY    29  18  63 CALM      29.91F
FAIRCHILD AFB  CLOUDY    30  14  51 N6        29.87F
COEURDALENE,ID MOCLDY    28  16  59 E6        29.88F
DEER PARK      CLOUDY    29  17  61 NW3       29.90S
$$

WAZ029>033-021400-
SOUTHEAST WASHINGTON

CITY           SKY/WX    TMP DP  RH WIND       PRES   REMARKS
PULLMAN        MOCLDY    32  17  54 NE7       29.87F
LEWISTON, ID   PTCLDY    31  22  69 CALM      29.90F
WALLA WALLA    PTCLDY    32  24  72 E3        29.89S
PENDLETON, OR  PTCLDY    30  22  72 CALM      29.87S
$$



USA.gov is the U.S. government's official web portal to all federal, state and local government web resources and services.